| time (UTC) | temp C | wind direction | speed KPH | gust KPH | rain 1hr cm | rain 24hr cm | rain mn cm | humidity % | barometer mb |
| 20260509060216 | 12 | 225 | 8.0 | 11.3 | 0.00 | 0.00 | 0.00 | 82 | 1004.3 |
| 20260509055236 | 12 | 225 | 11.3 | 14.5 | 0.00 | 0.00 | 0.00 | 82 | 1004.4 |
| 20260509054216 | 12 | 203 | 6.4 | 11.3 | 0.00 | 0.00 | 0.00 | 81 | 1004.5 |
| 20260509053216 | 12 | 203 | 6.4 | 9.7 | 0.00 | 0.00 | 0.00 | 80 | 1004.5 |
| 20260509052216 | 12 | 225 | 4.8 | 8.0 | 0.00 | 0.00 | 0.00 | 79 | 1004.6 |
| 20260509051216 | 12 | 203 | 6.4 | 9.7 | 0.00 | 0.00 | 0.00 | 78 | 1004.5 |
| 20260509050216 | 13 | 203 | 6.4 | 8.0 | 0.00 | 0.00 | 0.00 | 77 | 1004.5 |
| 20260509045216 | 13 | 203 | 6.4 | 9.7 | 0.00 | 0.00 | 0.00 | 75 | 1004.5 |
| 20260509044216 | 13 | 203 | 9.7 | 11.3 | 0.00 | 0.00 | 0.00 | 73 | 1004.5 |
| 20260509043216 | 13 | 203 | 6.4 | 9.7 | 0.00 | 0.00 | 0.00 | 72 | 1004.4 |
| 20260509042217 | 13 | 203 | 8.0 | 16.1 | 0.00 | 0.00 | 0.00 | 72 | 1004.4 |
| 20260509041216 | 13 | 203 | 8.0 | 11.3 | 0.00 | 0.00 | 0.00 | 71 | 1004.6 |
| 20260509040216 | 13 | 203 | 11.3 | 17.7 | 0.00 | 0.00 | 0.00 | 70 | 1004.6 |
| 20260509035217 | 13 | 203 | 8.0 | 12.9 | 0.00 | 0.00 | 0.00 | 69 | 1004.6 |
| 20260509034216 | 13 | 203 | 6.4 | 11.3 | 0.00 | 0.00 | 0.00 | 68 | 1004.7 |
| 20260509033216 | 13 | 203 | 8.0 | 11.3 | 0.00 | 0.00 | 0.00 | 67 | 1004.7 |
| 20260509032217 | 14 | 203 | 4.8 | 8.0 | 0.00 | 0.00 | 0.00 | 65 | 1004.5 |
| 20260509031216 | 14 | 203 | 4.8 | 6.4 | 0.00 | 0.00 | 0.00 | 62 | 1004.6 |
| 20260509030242 | 14 | 180 | 4.8 | 8.0 | 0.00 | 0.00 | 0.00 | 61 | 1004.5 |
| 20260509025216 | 14 | 180 | 8.0 | 12.9 | 0.00 | 0.00 | 0.00 | 60 | 1004.5 |
| 20260509024216 | 15 | 180 | 6.4 | 9.7 | 0.00 | 0.00 | 0.00 | 59 | 1004.5 |
| 20260509023216 | 15 | 180 | 1.6 | 4.8 | 0.00 | 0.00 | 0.00 | 58 | 1004.6 |
| 20260509022237 | 15 | 180 | 3.2 | 6.4 | 0.00 | 0.00 | 0.00 | 58 | 1004.6 |
| 20260509021216 | 15 | 203 | 3.2 | 4.8 | 0.00 | 0.00 | 0.00 | 57 | 1004.5 |
| 20260509020216 | 15 | 180 | 1.6 | 3.2 | 0.00 | 0.00 | 0.00 | 56 | 1004.5 |
| 20260509015216 | 16 | 180 | 3.2 | 6.4 | 0.00 | 0.00 | 0.00 | 55 | 1004.5 |
| 20260509014216 | 16 | 180 | 1.6 | 4.8 | 0.00 | 0.00 | 0.00 | 54 | 1004.4 |
| 20260509013216 | 16 | 203 | 3.2 | 6.4 | 0.00 | 0.00 | 0.00 | 54 | 1004.3 |
| 20260509012216 | 16 | 203 | 4.8 | 6.4 | 0.00 | 0.00 | 0.00 | 52 | 1004.3 |
| 20260509011216 | 17 | 180 | 4.8 | 4.8 | 0.00 | 0.00 | 0.00 | 51 | 1004.3 |
| 20260509010216 | 17 | 203 | 4.8 | 6.4 | 0.00 | 0.00 | 0.00 | 50 | 1004.2 |
| 20260509005216 | 17 | 180 | 8.0 | 12.9 | 0.00 | 0.00 | 0.00 | 49 | 1004.1 |
| 20260509004216 | 17 | 203 | 8.0 | 11.3 | 0.00 | 0.00 | 0.00 | 48 | 1004.2 |
| 20260509003237 | 18 | 225 | 3.2 | 4.8 | 0.00 | 0.00 | 0.00 | 47 | 1004.2 |
| 20260509002216 | 18 | 180 | 4.8 | 8.0 | 0.00 | 0.00 | 0.00 | 47 | 1004.2 |
| 20260509001216 | 18 | 203 | 8.0 | 11.3 | 0.00 | 0.00 | 0.00 | 46 | 1004.4 |
| 20260509000219 | 18 | 203 | 4.8 | 8.0 | 0.00 | 0.00 | 0.00 | 46 | 1004.4 |
| 20260508235216 | 18 | 203 | 6.4 | 8.0 | 0.00 | 0.00 | 0.00 | 46 | 1004.4 |
| 20260508234216 | 18 | 180 | 6.4 | 11.3 | 0.00 | 0.00 | 0.00 | 45 | 1004.5 |
| 20260508233216 | 18 | 225 | 4.8 | 6.4 | 0.00 | 0.00 | 0.00 | 43 | 1004.5 |
| 20260508232216 | 19 | 225 | 8.0 | 9.7 | 0.00 | 0.00 | 0.00 | 42 | 1004.5 |
| 20260508231216 | 20 | 203 | 3.2 | 6.4 | 0.00 | 0.00 | 0.00 | 41 | 1004.5 |
| 20260508230216 | 19 | 203 | 11.3 | 16.1 | 0.00 | 0.00 | 0.00 | 42 | 1004.7 |
| 20260508225216 | 20 | 203 | 8.0 | 11.3 | 0.00 | 0.00 | 0.00 | 41 | 1004.6 |
| 20260508224236 | 20 | 225 | 6.4 | 8.0 | 0.00 | 0.00 | 0.00 | 42 | 1004.6 |
| 20260508223216 | 20 | 113 | 4.8 | 9.7 | 0.00 | 0.00 | 0.00 | 43 | 1004.6 |
| 20260508222216 | 19 | 158 | 3.2 | 4.8 | 0.00 | 0.00 | 0.00 | 44 | 1004.7 |
| 20260508221216 | 20 | 180 | 6.4 | 8.0 | 0.00 | 0.00 | 0.00 | 44 | 1004.9 |
| 20260508220236 | 20 | 225 | 8.0 | 12.9 | 0.00 | 0.00 | 0.00 | 43 | 1005.0 |
| 20260508215216 | 20 | 248 | 8.0 | 11.3 | 0.00 | 0.10 | 0.00 | 41 | 1005.0 |
| 20260508214216 | 20 | 180 | 6.4 | 9.7 | 0.00 | 0.10 | 0.00 | 41 | 1005.0 |
| 20260508213216 | 18 | 225 | 8.0 | 11.3 | 0.00 | 0.10 | 0.00 | 44 | 1005.1 |
| 20260508212216 | 18 | 203 | 8.0 | 8.0 | 0.00 | 0.10 | 0.00 | 43 | 1005.1 |
| 20260508211216 | 19 | 248 | 6.4 | 11.3 | 0.00 | 0.10 | 0.00 | 42 | 1005.3 |
| 20260508210216 | 19 | 270 | 4.8 | 6.4 | 0.00 | 0.10 | 0.00 | 40 | 1005.2 |
| 20260508205216 | 20 | 293 | 1.6 | 3.2 | 0.00 | 0.13 | 0.00 | 40 | 1005.3 |
| 20260508204216 | 20 | 248 | 3.2 | 6.4 | 0.00 | 0.13 | 0.00 | 41 | 1005.5 |
| 20260508203216 | 20 | 180 | 9.7 | 16.1 | 0.00 | 0.13 | 0.00 | 40 | 1005.7 |
| 20260508202215 | 20 | 135 | 8.0 | 11.3 | 0.00 | 0.13 | 0.00 | 42 | 1005.9 |
| 20260508201218 | 20 | 158 | 9.7 | 12.9 | 0.00 | 0.13 | 0.00 | 42 | 1005.9 |
| 20260508200218 | 19 | 225 | 9.7 | 14.5 | 0.00 | 0.13 | 0.00 | 42 | 1006.2 |
| 20260508195218 | 20 | 203 | 8.0 | 11.3 | 0.00 | 0.13 | 0.00 | 40 | 1006.3 |
| 20260508194217 | 20 | 270 | 1.6 | 3.2 | 0.00 | 0.13 | 0.00 | 36 | 1006.4 |
| 20260508193238 | 20 | 225 | 4.8 | 6.4 | 0.00 | 0.13 | 0.00 | 40 | 1006.5 |
| 20260508192218 | 20 | 203 | 11.3 | 12.9 | 0.00 | 0.13 | 0.00 | 40 | 1006.7 |
| 20260508191217 | 20 | 225 | 3.2 | 6.4 | 0.00 | 0.13 | 0.00 | 39 | 1006.7 |
| 20260508190238 | 20 | 248 | 1.6 | 3.2 | 0.00 | 0.13 | 0.00 | 37 | 1006.9 |
| 20260508185238 | 19 | 248 | 1.6 | 6.4 | 0.00 | 0.13 | 0.00 | 41 | 1006.9 |
| 20260508184216 | 19 | 113 | 3.2 | 6.4 | 0.00 | 0.13 | 0.00 | 39 | 1007.1 |
| 20260508183218 | 19 | 203 | 3.2 | 6.4 | 0.00 | 0.13 | 0.00 | 41 | 1007.4 |
| 20260508182217 | 18 | 203 | 9.7 | 14.5 | 0.00 | 0.13 | 0.00 | 44 | 1007.4 |
| 20260508181218 | 18 | 90 | 9.7 | 14.5 | 0.00 | 0.13 | 0.00 | 45 | 1007.5 |
| 20260508180217 | 18 | 90 | 6.4 | 12.9 | 0.00 | 0.13 | 0.00 | 45 | 1007.6 |
| 20260508175238 | 19 | 113 | 4.8 | 9.7 | 0.00 | 0.13 | 0.00 | 43 | 1007.7 |
| 20260508174218 | 19 | 90 | 4.8 | 9.7 | 0.00 | 0.13 | 0.00 | 44 | 1008.0 |
| 20260508173238 | 18 | 180 | 8.0 | 9.7 | 0.00 | 0.13 | 0.00 | 44 | 1008.1 |
| 20260508172217 | 18 | 68 | 3.2 | 8.0 | 0.00 | 0.13 | 0.00 | 41 | 1008.3 |
| 20260508171217 | 18 | 135 | 1.6 | 3.2 | 0.00 | 0.13 | 0.00 | 37 | 1008.5 |
| 20260508170217 | 18 | 180 | 8.0 | 12.9 | 0.00 | 0.13 | 0.00 | 38 | 1008.7 |
| 20260508165218 | 18 | 248 | 3.2 | 4.8 | 0.00 | 0.13 | 0.00 | 38 | 1008.7 |
| 20260508164258 | 18 | 90 | 6.4 | 9.7 | 0.00 | 0.13 | 0.00 | 37 | 1008.9 |
| 20260508163237 | 18 | 135 | 8.0 | 11.3 | 0.00 | 0.13 | 0.00 | 38 | 1009.1 |
| 20260508162238 | 17 | 90 | 3.2 | 4.8 | 0.00 | 0.13 | 0.00 | 43 | 1009.3 |
| 20260508161238 | 17 | 113 | 9.7 | 14.5 | 0.00 | 0.13 | 0.00 | 40 | 1009.4 |
| 20260508160217 | 17 | 90 | 8.0 | 9.7 | 0.00 | 0.13 | 0.00 | 43 | 1009.3 |
| 20260508155217 | 17 | 113 | 3.2 | 6.4 | 0.00 | 0.13 | 0.00 | 46 | 1009.4 |
| 20260508154217 | 16 | 203 | 3.2 | 6.4 | 0.00 | 0.13 | 0.00 | 43 | 1009.5 |
| 20260508153217 | 16 | 45 | 1.6 | 4.8 | 0.00 | 0.13 | 0.00 | 46 | 1009.6 |
| 20260508152217 | 16 | 90 | 4.8 | 11.3 | 0.00 | 0.13 | 0.00 | 51 | 1009.7 |
| 20260508151257 | 15 | 90 | 8.0 | 12.9 | 0.00 | 0.13 | 0.00 | 55 | 1009.7 |
| 20260508150218 | 15 | 113 | 1.6 | 3.2 | 0.00 | 0.13 | 0.00 | 58 | 1009.8 |
| 20260508145217 | 14 | 113 | 4.8 | 9.7 | 0.00 | 0.13 | 0.00 | 62 | 1009.9 |
| 20260508144218 | 13 | 45 | 4.8 | 6.4 | 0.00 | 0.13 | 0.00 | 65 | 1010.0 |
| 20260508143217 | 13 | 90 | 6.4 | 9.7 | 0.00 | 0.13 | 0.00 | 69 | 1010.0 |
| 20260508142217 | 12 | 113 | 3.2 | 4.8 | 0.00 | 0.13 | 0.00 | 72 | 1010.2 |
| 20260508141217 | 12 | 135 | 1.6 | 3.2 | 0.00 | 0.13 | 0.00 | 73 | 1010.2 |
| 20260508140238 | 11 | 135 | 3.2 | 6.4 | 0.00 | 0.13 | 0.00 | 74 | 1010.2 |
| 20260508135217 | 11 | 135 | 3.2 | 4.8 | 0.00 | 0.13 | 0.00 | 77 | 1010.1 |
| 20260508134217 | 11 | 135 | 6.4 | 9.7 | 0.00 | 0.13 | 0.00 | 81 | 1010.1 |
| 20260508133238 | 10 | 90 | 4.8 | 6.4 | 0.00 | 0.13 | 0.00 | 84 | 1010.0 |
| 20260508132237 | 9 | 68 | 4.8 | 9.7 | 0.00 | 0.13 | 0.00 | 87 | 1010.0 |
| 20260508131217 | 8 | 113 | 3.2 | 4.8 | 0.00 | 0.13 | 0.00 | 89 | 1010.0 |
| 20260508130217 | 8 | 90 | 8.0 | 12.9 | 0.00 | 0.13 | 0.00 | 91 | 1010.1 |
| 20260508125217 | 7 | 68 | 3.2 | 4.8 | 0.00 | 0.13 | 0.00 | 91 | 1010.0 |
| 20260508124217 | 7 | 90 | 6.4 | 11.3 | 0.00 | 0.13 | 0.00 | 92 | 1010.0 |
| 20260508123217 | 6 | 90 | 4.8 | 6.4 | 0.00 | 0.13 | 0.00 | 92 | 1010.2 |
| 20260508122217 | 6 | 113 | 4.8 | 6.4 | 0.00 | 0.13 | 0.00 | 92 | 1010.2 |
| 20260508121217 | 5 | 90 | 4.8 | 4.8 | 0.00 | 0.13 | 0.00 | 92 | 1010.0 |
| 20260508120237 | 5 | 90 | 3.2 | 4.8 | 0.00 | 0.13 | 0.00 | 92 | 1010.1 |
| 20260508115217 | 5 | 68 | 3.2 | 3.2 | 0.00 | 0.13 | 0.00 | 91 | 1010.0 |
| 20260508114217 | 4 | 90 | 3.2 | 3.2 | 0.00 | 0.13 | 0.00 | 91 | 1010.0 |
| 20260508113237 | 3 | 0 | 1.6 | 3.2 | 0.00 | 0.13 | 0.00 | 91 | 1009.9 |
| 20260508112217 | 3 | 0 | 1.6 | 1.6 | 0.00 | 0.13 | 0.00 | 91 | 1009.9 |
| 20260508111217 | 3 | 0.0 | 0.0 | 0.00 | 0.13 | 0.00 | 91 | 1009.7 | |
| 20260508110217 | 3 | 0.0 | 0.0 | 0.00 | 0.13 | 0.00 | 90 | 1009.6 | |
| 20260508105216 | 3 | 0.0 | 1.6 | 0.00 | 0.13 | 0.00 | 90 | 1009.6 | |
| 20260508104217 | 2 | 0.0 | 0.0 | 0.00 | 0.13 | 0.00 | 90 | 1009.5 | |
| 20260508103237 | 2 | 0.0 | 0.0 | 0.00 | 0.13 | 0.00 | 90 | 1009.4 | |
| 20260508102217 | 2 | 0.0 | 0.0 | 0.00 | 0.13 | 0.00 | 89 | 1009.4 | |
| 20260508101237 | 3 | 0.0 | 1.6 | 0.00 | 0.13 | 0.00 | 89 | 1009.4 | |
| 20260508100237 | 3 | 0 | 1.6 | 3.2 | 0.00 | 0.13 | 0.00 | 89 | 1009.4 |
| 20260508095216 | 3 | 338 | 1.6 | 1.6 | 0.00 | 0.13 | 0.00 | 89 | 1009.5 |
| 20260508094217 | 3 | 0.0 | 0.0 | 0.00 | 0.13 | 0.00 | 89 | 1009.6 | |
| 20260508093217 | 3 | 0.0 | 1.6 | 0.00 | 0.13 | 0.00 | 89 | 1009.6 | |
| 20260508092237 | 3 | 0.0 | 0.0 | 0.00 | 0.13 | 0.00 | 89 | 1009.5 | |
| 20260508091217 | 3 | 0.0 | 0.0 | 0.00 | 0.13 | 0.00 | 88 | 1009.8 | |
| 20260508090216 | 3 | 0.0 | 0.0 | 0.00 | 0.13 | 0.00 | 88 | 1009.8 | |
| 20260508085237 | 3 | 0.0 | 0.0 | 0.00 | 0.13 | 0.00 | 88 | 1009.9 | |
| 20260508084216 | 3 | 0.0 | 0.0 | 0.00 | 0.13 | 0.00 | 88 | 1010.0 | |
| 20260508083216 | 3 | 0.0 | 0.0 | 0.00 | 0.13 | 0.00 | 88 | 1010.1 | |
| 20260508082216 | 3 | 0.0 | 0.0 | 0.00 | 0.13 | 0.00 | 88 | 1010.1 | |
| 20260508081216 | 3 | 0.0 | 0.0 | 0.00 | 0.13 | 0.00 | 88 | 1010.2 | |
| 20260508080216 | 4 | 0.0 | 0.0 | 0.00 | 0.13 | 0.00 | 88 | 1010.2 | |
| 20260508075216 | 4 | 0.0 | 0.0 | 0.00 | 0.13 | 0.00 | 88 | 1010.3 | |
| 20260508074216 | 4 | 0.0 | 0.0 | 0.00 | 0.13 | 0.00 | 88 | 1010.4 | |
| 20260508073216 | 4 | 0.0 | 0.0 | 0.00 | 0.13 | 0.00 | 87 | 1010.5 | |
| 20260508072217 | 4 | 338 | 1.6 | 4.8 | 0.00 | 0.13 | 0.00 | 87 | 1010.5 |
| 20260508071216 | 5 | 0.0 | 1.6 | 0.00 | 0.13 | 0.00 | 87 | 1010.6 | |
| 20260508070216 | 5 | 0.0 | 1.6 | 0.00 | 0.13 | 0.00 | 86 | 1010.7 | |
| 20260508065216 | 4 | 0.0 | 0.0 | 0.00 | 0.13 | 0.00 | 86 | 1010.7 | |
| 20260508064216 | 4 | 315 | 3.2 | 3.2 | 0.00 | 0.13 | 0.00 | 85 | 1010.5 |
| 20260508063236 | 5 | 0.0 | 0.0 | 0.00 | 0.13 | 0.00 | 85 | 1010.5 | |
| 20260508062216 | 5 | 0.0 | 0.0 | 0.00 | 0.13 | 0.00 | 85 | 1010.6 | |
| 20260508061236 | 5 | 0.0 | 0.0 | 0.00 | 0.13 | 0.00 | 84 | 1010.6 |